Previsão horária em Aarle

Hoje, 17 Abril, Sábado

Tempo Temperatura Precipitação Vento Pressão Humidade
00:00 +3°C° 0 mm 3 m/s 768 mmHg 73%
01:00 +2°C° 0 mm 3 m/s 768 mmHg 76%
02:00 +2°C° 0 mm 3 m/s 768 mmHg 78%
03:00 +1°C° 0 mm 3 m/s 768 mmHg 80%
04:00 +2°C° 0 mm 3 m/s 768 mmHg 79%
05:00 +2°C° 0 mm 3 m/s 768 mmHg 77%
06:00 +3°C° 0 mm 2 m/s 768 mmHg 76%
07:00 +4°C° 0 mm 3 m/s 768 mmHg 70%
08:00 +6°C° 0 mm 4 m/s 768 mmHg 63%
09:00 +8°C° 0 mm 4 m/s 768 mmHg 57%
10:00 +10°C° 0 mm 4 m/s 767 mmHg 53%
11:00 +11°C° 0 mm 4 m/s 767 mmHg 49%
12:00 +12°C° 0 mm 5 m/s 766 mmHg 45%
13:00 +12°C° 0 mm 5 m/s 766 mmHg 45%
14:00 +12°C° 0 mm 4 m/s 766 mmHg 44%
15:00 +13°C° 0 mm 4 m/s 765 mmHg 44%
16:00 +12°C° 0 mm 4 m/s 765 mmHg 50%
17:00 +11°C° 0 mm 4 m/s 765 mmHg 57%
18:00 +8°C° 0 mm 4 m/s 765 mmHg 64%
19:00 +8°C° 0 mm 4 m/s 765 mmHg 66%
20:00 +7°C° 0 mm 4 m/s 766 mmHg 69%
21:00 +6°C° 0 mm 4 m/s 766 mmHg 72%
22:00 +5°C° 0 mm 3 m/s 766 mmHg 72%
23:00 +5°C° 0 mm 3 m/s 766 mmHg 72%

Amanhã, 18 Abril, Domingo

Tempo Temperatura Precipitação Vento Pressão Humidade
00:00 +6°C° 0 mm 2 m/s 765 mmHg 73%
01:00 +6°C° 0 mm 2 m/s 765 mmHg 72%
02:00 +5°C° 0 mm 2 m/s 765 mmHg 72%
03:00 +5°C° 0 mm 2 m/s 765 mmHg 71%
04:00 +5°C° 0 mm 2 m/s 765 mmHg 71%
05:00 +6°C° 0 mm 2 m/s 765 mmHg 72%
06:00 +6°C° 0 mm 2 m/s 765 mmHg 72%
07:00 +7°C° 0 mm 2 m/s 765 mmHg 69%
08:00 +8°C° 0 mm 2 m/s 765 mmHg 67%
09:00 +9°C° 0 mm 2 m/s 765 mmHg 64%
10:00 +10°C° 0 mm 2 m/s 765 mmHg 61%
11:00 +13°C° 0 mm 2 m/s 764 mmHg 58%
12:00 +14°C° 0 mm 2 m/s 764 mmHg 54%
13:00 +13°C° 0.1 mm 3 m/s 764 mmHg 56%
14:00 +13°C° 0.1 mm 3 m/s 764 mmHg 58%
15:00 +13°C° 0.1 mm 3 m/s 763 mmHg 59%
16:00 +12°C° 0.1 mm 3 m/s 763 mmHg 66%
17:00 +11°C° 0.1 mm 3 m/s 763 mmHg 73%
18:00 +10°C° 0.1 mm 2 m/s 764 mmHg 80%
19:00 +10°C° 0 mm 2 m/s 764 mmHg 83%
20:00 +9°C° 0 mm 2 m/s 764 mmHg 86%
21:00 +8°C° 0 mm 2 m/s 764 mmHg 89%
22:00 +8°C° 0 mm 2 m/s 764 mmHg 90%
23:00 +7°C° 0 mm 2 m/s 764 mmHg 92%

Depois de amanhã, 19 Abril, Segunda-feira

Tempo Temperatura Precipitação Vento Pressão Humidade
00:00 +7°C° 0 mm 2 m/s 763 mmHg 93%
01:00 +7°C° 0 mm 2 m/s 763 mmHg 93%
02:00 +6°C° 0 mm 2 m/s 763 mmHg 92%
03:00 +6°C° 0 mm 2 m/s 763 mmHg 92%
04:00 +7°C° 0 mm 2 m/s 763 mmHg 91%
05:00 +7°C° 0 mm 2 m/s 763 mmHg 90%
06:00 +8°C° 0 mm 2 m/s 763 mmHg 89%
07:00 +8°C° 0 mm 2 m/s 763 mmHg 88%
08:00 +9°C° 0 mm 2 m/s 763 mmHg 86%
09:00 +10°C° 0 mm 2 m/s 763 mmHg 84%
10:00 +12°C° 0.1 mm 2 m/s 763 mmHg 79%
11:00 +13°C° 0.1 mm 2 m/s 762 mmHg 74%
12:00 +14°C° 0.1 mm 2 m/s 762 mmHg 69%
13:00 +14°C° 0.3 mm 2 m/s 762 mmHg 67%
14:00 +15°C° 0.3 mm 2 m/s 761 mmHg 65%
15:00 +14°C° 0.3 mm 3 m/s 761 mmHg 63%
16:00 +14°C° 0.1 mm 2 m/s 761 mmHg 68%
17:00 +13°C° 0.1 mm 2 m/s 761 mmHg 72%
18:00 +13°C° 0.1 mm 2 m/s 761 mmHg 76%
19:00 +12°C° 0 mm 2 m/s 761 mmHg 79%
20:00 +10°C° 0 mm 2 m/s 761 mmHg 82%
21:00 +9°C° 0 mm 1 m/s 761 mmHg 84%
22:00 +9°C° 0 mm 1 m/s 761 mmHg 85%
23:00 +9°C° 0 mm 1 m/s 761 mmHg 86%

20 Abril, Terça-feira

Tempo Temperatura Precipitação Vento Pressão Humidade
00:00 +8°C° 0 mm 1 m/s 761 mmHg 87%
01:00 +8°C° 0 mm 1 m/s 760 mmHg 88%
02:00 +8°C° 0 mm 1 m/s 760 mmHg 89%
03:00 +8°C° 0 mm 1 m/s 760 mmHg 90%
04:00 +8°C° 0 mm 1 m/s 760 mmHg 89%
05:00 +9°C° 0 mm 1 m/s 760 mmHg 89%
06:00 +9°C° 0 mm 1 m/s 760 mmHg 88%
07:00 +10°C° 0 mm 1 m/s 760 mmHg 86%
08:00 +11°C° 0 mm 1 m/s 760 mmHg 83%
09:00 +12°C° 0 mm 1 m/s 760 mmHg 81%
10:00 +13°C° 0.1 mm 1 m/s 760 mmHg 77%
11:00 +14°C° 0.1 mm 1 m/s 759 mmHg 73%
12:00 +15°C° 0.1 mm 1 m/s 759 mmHg 69%
13:00 +15°C° 0.2 mm 2 m/s 759 mmHg 66%
14:00 +16°C° 0.2 mm 2 m/s 759 mmHg 62%
15:00 +17°C° 0.2 mm 3 m/s 758 mmHg 59%
16:00 +16°C° 0.5 mm 3 m/s 758 mmHg 67%
17:00 +13°C° 0.5 mm 3 m/s 758 mmHg 75%
18:00 +12°C° 0.5 mm 4 m/s 758 mmHg 83%
19:00 +11°C° 0.1 mm 3 m/s 759 mmHg 85%
20:00 +10°C° 0.1 mm 3 m/s 759 mmHg 88%
21:00 +9°C° 0.1 mm 3 m/s 759 mmHg 90%
22:00 +8°C° 0 mm 3 m/s 759 mmHg 91%
23:00 +7°C° 0 mm 3 m/s 759 mmHg 91%

21 Abril, Quarta-feira

Tempo Temperatura Precipitação Vento Pressão Humidade
00:00 +7°C° 0 mm 3 m/s 759 mmHg 92%
01:00 +5°C° 0 mm 3 m/s 759 mmHg 92%
02:00 +5°C° 0 mm 3 m/s 759 mmHg 93%
03:00 +5°C° 0 mm 3 m/s 759 mmHg 93%
04:00 +5°C° 0 mm 3 m/s 759 mmHg 93%
05:00 +7°C° 0 mm 3 m/s 760 mmHg 92%
06:00 +6°C° 0 mm 4 m/s 760 mmHg 92%
07:00 +6°C° 0.1 mm 4 m/s 760 mmHg 88%
08:00 +7°C° 0.1 mm 5 m/s 761 mmHg 83%
09:00 +7°C° 0.1 mm 6 m/s 761 mmHg 78%
10:00 +8°C° 0 mm 6 m/s 761 mmHg 67%
11:00 +9°C° 0 mm 6 m/s 761 mmHg 56%
12:00 +10°C° 0 mm 6 m/s 761 mmHg 45%
13:00 +10°C° 0 mm 7 m/s 761 mmHg 45%
14:00 +10°C° 0 mm 7 m/s 761 mmHg 45%
15:00 +9°C° 0 mm 8 m/s 762 mmHg 45%
16:00 +8°C° 0 mm 7 m/s 762 mmHg 51%
17:00 +7°C° 0 mm 6 m/s 762 mmHg 58%
18:00 +5°C° 0 mm 6 m/s 763 mmHg 64%
19:00 +5°C° 0 mm 5 m/s 763 mmHg 68%
20:00 +3°C° 0 mm 5 m/s 764 mmHg 73%
21:00 +3°C° 0 mm 4 m/s 764 mmHg 77%
22:00 +3°C° 0 mm 4 m/s 764 mmHg 77%
23:00 +2°C° 0 mm 3 m/s 764 mmHg 77%

22 Abril, Quinta-feira

Tempo Temperatura Precipitação Vento Pressão Humidade
00:00 +2°C° 0 mm 3 m/s 764 mmHg 77%
01:00 +2°C° 0 mm 3 m/s 764 mmHg 78%
02:00 +1°C° 0 mm 4 m/s 764 mmHg 78%
03:00 +1°C° 0 mm 4 m/s 764 mmHg 79%
04:00 +1°C° 0.1 mm 5 m/s 764 mmHg 80%
05:00 +2°C° 0.1 mm 5 m/s 764 mmHg 80%
06:00 +3°C° 0.1 mm 5 m/s 764 mmHg 81%
07:00 +4°C° 0.1 mm 6 m/s 764 mmHg 72%
08:00 +5°C° 0.1 mm 6 m/s 765 mmHg 63%
09:00 +6°C° 0.1 mm 7 m/s 765 mmHg 54%
10:00 +8°C° 0 mm 7 m/s 765 mmHg 51%
11:00 +9°C° 0 mm 7 m/s 765 mmHg 47%
12:00 +9°C° 0 mm 7 m/s 765 mmHg 44%
13:00 +9°C° 0 mm 7 m/s 765 mmHg 45%
14:00 +9°C° 0 mm 7 m/s 765 mmHg 46%
15:00 +9°C° 0 mm 8 m/s 766 mmHg 47%
16:00 +8°C° 0 mm 7 m/s 766 mmHg 53%
17:00 +7°C° 0 mm 6 m/s 767 mmHg 60%
18:00 +6°C° 0 mm 5 m/s 767 mmHg 66%
19:00 +5°C° 0 mm 4 m/s 768 mmHg 72%
20:00 +4°C° 0 mm 4 m/s 768 mmHg 78%
21:00 +3°C° 0 mm 3 m/s 768 mmHg 84%
22:00 +2°C° 0 mm 3 m/s 768 mmHg 87%
23:00 +2°C° 0 mm 3 m/s 769 mmHg 89%
Mostrar mais

Necessitamos do seu Consentimento

A Meteoprog e os seus Fornecedores de Serviços podem armazenar e aceder a dados pessoais como cookies, identificadores do dispositivo ou outras tecnologias semelhantes existentes no seu dispositivo e processar estes dados para personalizar conteúdos e anúncios, assim como funcionalidades nas redes sociais e análise de tráfego.

  • Armazenar e/ou aceder a informações no seu dispositivo

    Os cookies, identificadores do dispositivo ou outras informações podem ser armazenados ou acedidos no seu dispositivo, para os fins acima indicados.

  • Anúncios e conteúdos personalizados, medição de anúncios e conteúdos, dados sobre o público-alvo e desenvolvimento de produtos

    Os anúncios e os conteúdos podem ser personalizados com base num perfil. Podem ser adicionados dados adicionais para uma maior personalização dos anúncios e dos conteúdos. A eficácia dos anúncios e dos conteúdos pode ser medida. Podem ser obtidas informações sobre o público que visualizou os anúncios e os conteúdos. Estes dados podem ser usados para desenvolver ou melhorar sistemas, softwares ou a experiência do utilizador.

Ao clicar em "Eu concordo”, permitirá o uso de cookies, identificadores do dispositivo e web beacons mencionados ou outras tecnologias semelhantes. As configurações do navegador do seu dispositivo podem ser alteradas.

Para certos fins, podem ser invocados interesses legítimos ao invés de consentimento. Pode ler mais informação sobre este assunto na nossa Política de Privacidade e Cookies.